Location: Cicognara
(44.9500°N, 10.4667°E)
Time: 07:05:58
(UTC+00:00)

SAR-Lupe-2 - Pass Details

Date: 20 June 2021
Orbit: 482 x 484 km, 98.1° (Epoch: 20 July)

Event Time Altitude Azimuth Distance (km) Brightness Sun altitude
Rises 23:03:28 0° 13° (NNE) 2,560 8.5 -21.5°
Reaches altitude 10° 23:05:33 10° 14° (NNE) 1,674 7.3 -21.5°
Enters shadow 23:09:06 87° 27° (NNE) 491 3.4 -21.6°
